Location: State Camp
(41.2367°N, 77.7828°W)
Time: 03:11:44
(UTC-05:00)

Hubble Space Telescope - Visible Passes

Search period start: 27 November 2014 00:00
Search period end: 07 December 2014 00:00
Orbit: 546 x 549 km, 28.5° (Epoch: 26 November)

Date Brightness Start Highest point End Pass type
(mag) Time Alt. Az. Time Alt. Az. Time Alt. Az.
27 Nov 3.2 05:38:51 10° SW 05:40:42 13° S 05:42:33 10° SSE visible
28 Nov 3.3 05:31:36 10° SSW 05:33:00 12° S 05:34:26 10° S visible
29 Nov 3.3 05:24:56 10° SSW 05:25:18 10° SSW 05:25:39 10° S visible
